Location: LDNL
(36.4545°S, 141.6685°E)
Time: 18:36:37
(UTC+10:00)

NUDT-PHONESAT - Visible Passes

Search period start: 16 May 2022 00:00
Search period end: 26 May 2022 00:00
Orbit: 456 x 471 km, 97.4° (Epoch: 15 May)

Date Brightness Start Highest point End Pass type
(mag) Time Alt. Az. Time Alt. Az. Time Alt. Az.
16 May ? 05:41:13 10° ESE 05:41:34 10° ESE 05:41:54 10° ESE visible
17 May ? 06:39:46 10° NNE 06:43:16 67° ESE 06:46:50 10° S visible
17 May ? 19:45:03 16° NNW 19:45:03 16° NNW 19:45:52 10° NNW visible
18 May ? 06:09:36 10° NE 06:12:31 24° ESE 06:15:28 10° SSE visible
18 May ? 19:13:53 16° NNE 19:13:53 16° NNE 19:14:42 10° NNE visible
19 May ? 05:41:29 10° ESE 05:41:51 10° ESE 05:42:13 10° ESE visible
20 May ? 06:39:54 10° NNE 06:43:24 66° ESE 06:46:58 10° S visible
20 May ? 19:45:19 14° NNW 19:45:19 14° NNW 19:45:54 10° NNW visible
21 May ? 06:09:36 10° NE 06:12:30 24° ESE 06:15:26 10° SSE visible
21 May ? 19:13:59 14° NNE 19:13:59 14° NNE 19:14:36 10° NNE visible
23 May ? 06:39:36 10° NNE 06:43:05 65° ESE 06:46:38 10° S visible
23 May ? 19:45:04 13° NNW 19:45:04 13° NNW 19:45:29 10° NNW visible
24 May ? 06:09:10 10° NE 06:12:02 24° ESE 06:14:56 10° SSE visible
24 May ? 19:13:34 13° NNE 19:13:34 13° NNE 19:14:00 10° NNE visible
